Date_and_time,latitude,longitude,wind_speed,RelWindDirFrom,WindDirFrom,air_pressure,air_temperature,relative_humidity,Temp,platform_speed_wrt_ground,air_pressure_at_mean_sea_level,platform_orientation
2019-01-15 23:40,50.6304616666667,-96.9807716666667,11.6,17.6,314,998.83,-20.2,67,0.63,0.0,1029.10,360.0
2019-01-15 23:50,50.6304516666667,-96.9807733333333,10.5,17.3,314,999.10,-20.4,67,0.63,0.0,1029.40,360.0
2019-01-16 00:00,50.6304316666667,-96.980765,10.8,18.1,320,999.20,-20.6,67,0.63,0.0,1029.53,161.1
2019-01-16 00:00,50.630435,-96.9807683333333,10.6,10.7,323,999.23,-20.7,68,0.63,0.0,1029.59,345.5
2019-01-16 00:10,50.6304483333333,-96.980765,10.8,16.6,313,999.31,-20.8,68,0.63,0.0,1029.69,345.5
2019-01-16 00:20,50.63045,-96.98077,10.7,16.6,316,999.50,-21.0,67,0.63,0.0,1029.93,345.5
2019-01-16 00:30,50.6304516666667,-96.9807716666667,12.2,18.7,316,999.35,-21.1,67,0.63,0.0,1029.81,345.5
2019-01-16 00:40,50.6304533333333,-96.9807716666667,13.2,19.2,311,999.43,-21.3,67,0.63,0.0,1029.93,345.5
2019-01-16 00:50,50.6304516666667,-96.9807716666667,11.6,17.4,319,999.78,-21.5,67,0.62,0.0,1030.31,345.5
2019-01-16 01:00,50.6304516666667,-96.9807733333333,10.6,16.2,324,1000.11,-21.6,66,0.62,0.0,1030.67,270.0
2019-01-16 01:10,50.6304516666667,-96.9807716666667,12.3,18.3,322,999.97,-21.7,66,0.62,0.0,1030.54,270.0
2019-01-16 01:20,50.6304516666667,-96.9807716666667,12.2,18.1,322,1000.06,-21.9,65,0.61,0.0,1030.65,270.0
2019-01-16 01:30,50.6304516666667,-96.9807683333333,11.8,17.9,325,1000.12,-22.0,65,0.61,0.0,1030.74,270.0
2019-01-16 01:40,50.6304533333333,-96.98077,11.9,17.0,324,1000.31,-22.2,65,0.61,0.0,1030.95,270.0
2019-01-16 01:50,50.6304533333333,-96.98077,11.4,15.8,319,1000.52,-22.4,65,0.60,0.0,1031.19,270.0
2019-01-16 02:00,50.6304533333333,-96.9807866666667,11.3,16.3,319,1000.80,-22.5,65,0.60,0.0,1031.49,316.8
2019-01-16 02:10,50.63045,-96.9807533333333,10.2,15.7,322,1001.00,-22.6,66,0.59,0.0,1031.71,316.8
2019-01-16 02:20,50.6304483333333,-96.9807633333333,9.4,15.3,325,1001.08,-22.6,66,0.59,0.0,1031.81,316.8
2019-01-16 02:30,50.6304766666667,-96.9807666666667,9.3,14.4,326,1001.06,-22.7,66,0.58,0.0,1031.80,316.8
2019-01-16 02:40,50.6304483333333,-96.9807633333333,7.7,12.5,326,1001.28,-22.8,67,0.57,0.0,1032.04,316.8
2019-01-16 02:50,50.6304516666667,-96.980765,7.0,9.6,339,1001.32,-22.9,67,0.57,0.0,1032.10,316.8
2019-01-16 03:00,50.63045,-96.980765,8.3,12.4,338,1001.28,-22.9,67,0.56,0.0,1032.07,360.0
2019-01-16 03:10,50.6304516666667,-96.9807666666667,9.9,13.4,341,1001.08,-22.9,67,0.56,0.0,1031.88,360.0
2019-01-16 03:20,50.63045,-96.9807633333333,8.2,13.8,326,1001.30,-23.1,68,0.56,0.0,1032.12,360.0
2019-01-16 03:30,50.63045,-96.9807633333333,9.2,14.1,318,1001.31,-23.2,67,0.55,0.0,1032.15,360.0
2019-01-16 03:40,50.6304516666667,-96.980765,8.5,12.4,319,1001.53,-23.3,67,0.54,0.0,1032.39,360.0
2019-01-16 03:50,50.6304516666667,-96.980765,7.4,12.4,325,1001.72,-23.4,68,0.53,0.0,1032.60,360.0
2019-01-16 04:00,50.6304533333333,-96.980765,5.5,9.2,314,1002.11,-23.5,68,0.53,0.0,1033.01,90.0
2019-01-16 04:10,50.6304433333333,-96.9807016666667,6.8,10.7,329,1002.04,-23.5,69,0.52,0.0,1032.95,90.0
2019-01-16 04:20,50.630465,-96.9807566666667,6.7,10.5,340,1001.93,-23.6,69,0.52,0.0,1032.84,90.0
2019-01-16 04:30,50.6304616666667,-96.980765,6.8,10.5,323,1002.17,-23.6,69,0.51,0.0,1033.09,90.0
2019-01-16 04:40,50.6304583333333,-96.9807666666667,6.1,10.0,314,1002.54,-23.7,69,0.50,0.0,1033.49,90.0
2019-01-16 04:50,50.6304516666667,-96.9807883333333,5.9,8.9,320,1002.39,-23.8,70,0.49,0.0,1033.34,90.0
2019-01-16 05:00,50.6304516666667,-96.9807766666667,7.3,11.5,315,1002.29,-23.9,70,0.49,0.0,1033.25,90.0
2019-01-16 05:10,50.63045,-96.980775,6.1,8.7,314,1002.54,-24.0,70,0.48,0.0,1033.52,90.0
2019-01-16 05:20,50.63045,-96.9807733333333,7.2,9.9,308,1002.63,-24.1,71,0.48,0.0,1033.63,90.0
2019-01-16 05:30,50.63045,-96.98077,6.3,9.3,305,1002.75,-24.2,71,0.48,0.0,1033.77,90.0
2019-01-16 05:40,50.6304433333333,-96.9807633333333,6.0,9.3,300,1002.86,-24.4,71,0.47,0.0,1033.89,90.0
2019-01-16 05:50,50.630445,-96.9807633333333,6.9,10.3,312,1002.79,-24.4,72,0.46,0.0,1033.83,90.0
2019-01-16 06:00,50.630445,-96.9807633333333,4.4,6.9,302,1002.93,-24.5,72,0.46,0.0,1033.98,360.0
2019-01-16 06:10,50.6304466666667,-96.980765,5.5,7.2,314,1002.82,-24.5,72,0.46,0.0,1033.87,360.0
2019-01-16 06:20,50.6304483333333,-96.9807666666667,3.7,7.5,300,1002.97,-24.7,73,0.46,0.0,1034.04,360.0
2019-01-16 06:30,50.6304466666667,-96.98077,4.4,7.0,309,1002.75,-24.8,72,0.45,0.0,1033.83,360.0
2019-01-16 06:40,50.6304516666667,-96.9807716666667,4.2,6.1,303,1002.66,-24.8,73,0.45,0.0,1033.75,360.0
2019-01-16 06:50,50.6304466666667,-96.980765,5.3,7.7,300,1002.69,-24.9,73,0.45,0.0,1033.78,360.0
2019-01-16 07:00,50.6304466666667,-96.9807616666667,4.8,7.0,291,1002.77,-25.0,73,0.45,0.0,1033.88,131.7
2019-01-16 07:10,50.630445,-96.98076,5.1,6.7,295,1002.73,-25.2,73,0.44,0.0,1033.86,131.7
2019-01-16 07:20,50.6304366666667,-96.9807683333333,5.8,8.2,289,1002.73,-25.5,73,0.44,0.0,1033.89,131.7
2019-01-16 07:30,50.6304416666667,-96.9807783333333,5.8,7.7,304,1002.53,-25.7,73,0.43,0.0,1033.69,131.7
2019-01-16 07:40,50.63045,-96.9807783333333,5.2,6.9,312,1002.49,-25.7,74,0.42,0.0,1033.67,131.7
2019-01-16 07:50,50.6304433333333,-96.9807716666667,5.7,7.2,311,1002.48,-25.8,75,0.41,0.0,1033.66,131.7
2019-01-16 08:00,50.6304466666667,-96.980775,5.7,7.5,315,1002.51,-25.8,74,0.41,0.0,1033.69,360.0
2019-01-16 08:10,50.63045,-96.9807733333333,6.4,8.8,320,1002.44,-25.7,74,0.41,0.0,1033.63,360.0
2019-01-16 08:20,50.63045,-96.98077,6.3,8.9,324,1002.40,-25.6,73,0.41,0.0,1033.59,360.0
2019-01-16 08:30,50.6304483333333,-96.9807683333333,6.1,9.3,316,1002.44,-25.7,73,0.40,0.0,1033.63,360.0
2019-01-16 08:40,50.6304416666667,-96.9807683333333,5.6,7.8,316,1002.51,-25.7,73,0.40,0.0,1033.71,360.0
2019-01-16 08:50,50.63045,-96.98078,4.8,7.3,317,1002.64,-25.7,73,0.39,0.0,1033.86,360.0
2019-01-16 09:00,50.63045,-96.9807833333333,3.9,6.1,309,1002.79,-25.7,74,0.38,0.0,1034.03,317.2
2019-01-16 09:10,50.6304633333333,-96.9807716666667,3.8,5.6,294,1002.86,-25.7,74,0.38,0.0,1034.11,317.2
2019-01-16 09:20,50.63045,-96.98077,3.7,5.4,274,1003.00,-26.0,74,0.38,0.0,1034.29,317.2
2019-01-16 09:30,50.6304466666667,-96.9807683333333,3.6,5.6,283,1002.97,-26.3,74,0.37,0.0,1034.27,317.2
2019-01-16 09:40,50.6304433333333,-96.9807683333333,3.1,4.9,300,1002.85,-26.3,74,0.37,0.0,1034.16,317.2
2019-01-16 09:50,50.6304466666667,-96.980775,3.7,5.7,282,1002.86,-26.4,75,0.36,0.0,1034.18,317.2
2019-01-16 10:00,50.6304483333333,-96.9807766666667,4.0,6.3,273,1002.91,-26.7,75,0.36,0.0,1034.24,270.0
2019-01-16 10:10,50.6304466666667,-96.9807766666667,4.9,6.3,283,1002.75,-26.8,75,0.36,0.0,1034.07,270.0
2019-01-16 10:20,50.6304516666667,-96.9807883333333,5.9,7.3,283,1002.73,-26.7,75,0.36,0.0,1034.06,270.0
2019-01-16 10:30,50.630445,-96.9807833333333,5.7,7.5,278,1002.76,-26.8,75,0.36,0.0,1034.09,270.0
2019-01-16 10:40,50.63045,-96.980775,5.0,6.7,270,1002.88,-26.8,75,0.35,0.0,1034.22,270.0
2019-01-16 10:50,50.63045,-96.9807716666667,4.8,6.6,272,1002.95,-26.8,75,0.35,0.0,1034.29,270.0
2019-01-16 11:00,50.63045,-96.9807716666667,4.8,6.3,279,1002.84,-26.7,75,0.35,0.0,1034.17,360.0
2019-01-16 11:10,50.63045,-96.980775,4.7,6.5,275,1002.76,-26.6,75,0.34,0.0,1034.10,360.0
2019-01-16 11:20,50.6304483333333,-96.980775,4.1,5.4,286,1002.67,-26.5,75,0.34,0.0,1034.01,360.0
2019-01-16 11:30,50.6304483333333,-96.9807766666667,4.1,5.0,286,1002.60,-26.3,75,0.33,0.0,1033.94,360.0
2019-01-16 11:40,50.6304483333333,-96.9807766666667,3.9,5.0,277,1002.67,-26.1,75,0.33,0.0,1034.00,360.0
2019-01-16 11:50,50.6304366666667,-96.98076,3.4,4.8,270,1002.82,-26.0,75,0.33,0.0,1034.17,360.0
2019-01-16 12:00,50.6304433333333,-96.9807683333333,4.2,6.5,256,1003.03,-26.0,75,0.33,0.0,1034.38,137.2
2019-01-16 12:10,50.6304466666667,-96.98077,4.2,5.6,253,1003.19,-26.1,74,0.33,0.0,1034.56,137.2
2019-01-16 12:20,50.6304483333333,-96.9807666666667,3.7,4.9,250,1003.13,-26.1,74,0.33,0.0,1034.50,137.2
2019-01-16 12:30,50.63045,-96.9807683333333,3.0,4.6,265,1002.97,-25.9,75,0.33,0.0,1034.32,137.2
2019-01-16 12:40,50.6304483333333,-96.9807666666667,3.2,4.3,305,1002.86,-25.7,75,0.33,0.0,1034.20,137.2
2019-01-16 12:50,50.6304483333333,-96.9807666666667,3.5,5.0,274,1002.85,-25.7,75,0.33,0.0,1034.18,137.2
2019-01-16 13:00,50.6304416666667,-96.980795,3.5,4.8,269,1002.88,-25.6,75,0.33,0.0,1034.20,252.3
2019-01-16 13:10,50.6304366666667,-96.980755,4.2,5.6,256,1002.97,-25.7,75,0.33,0.0,1034.29,252.3
2019-01-16 13:20,50.6304416666667,-96.980765,3.9,5.6,239,1002.98,-26.0,74,0.33,0.0,1034.31,252.3
2019-01-16 13:30,50.6304366666667,-96.980765,3.7,4.9,241,1002.90,-26.1,74,0.32,0.0,1034.21,252.3
2019-01-16 13:40,50.6304433333333,-96.9807833333333,3.4,5.0,249,1002.77,-26.2,74,0.32,0.0,1034.08,252.3
2019-01-16 13:50,50.6304433333333,-96.9807766666667,2.9,4.0,240,1002.67,-26.4,74,0.31,0.0,1033.99,252.3
2019-01-16 14:00,50.6304416666667,-96.9807733333333,3.0,4.2,239,1002.60,-26.4,74,0.31,0.0,1033.93,360.0
2019-01-16 14:10,50.6304433333333,-96.980775,2.4,3.2,231,1002.53,-26.5,74,0.31,0.0,1033.87,360.0
2019-01-16 14:20,50.6304433333333,-96.9807716666667,2.5,3.7,227,1002.51,-26.6,74,0.32,0.0,1033.83,360.0
2019-01-16 14:30,50.6304433333333,-96.98077,2.1,4.0,240,1002.47,-26.5,74,0.33,0.0,1033.78,360.0
2019-01-16 14:40,50.63043,-96.9807683333333,2.3,3.5,234,1002.42,-26.3,74,0.33,0.0,1033.71,360.0
2019-01-16 14:50,50.6304466666667,-96.98076,2.7,4.0,217,1002.39,-26.4,74,0.33,0.0,1033.68,360.0
2019-01-16 15:00,50.6304483333333,-96.9807583333333,2.4,3.3,220,1002.44,-26.3,74,0.33,0.0,1033.74,12.6
2019-01-16 15:10,50.63045,-96.98076,1.0,1.9,270,1002.47,-25.9,74,0.33,0.0,1033.76,12.6
2019-01-16 15:20,50.6304516666667,-96.9807616666667,1.3,1.9,286,1002.55,-25.4,74,0.33,0.0,1033.81,12.6
2019-01-16 15:30,50.6304533333333,-96.9807683333333,1.4,2.2,331,1002.63,-24.9,74,0.33,0.0,1033.88,12.6
2019-01-16 15:40,50.63045,-96.9807683333333,1.1,2.1,344,1002.65,-24.7,73,0.34,0.0,1033.89,12.6
2019-01-16 15:50,50.63045,-96.9807666666667,1.2,2.1,2,1002.68,-24.4,73,0.33,0.0,1033.90,12.6
2019-01-16 16:00,50.6304483333333,-96.9807683333333,0.1,1.2,205,1002.69,-24.1,72,0.34,0.0,1033.90,75.8
2019-01-16 16:10,50.6304466666667,-96.9807666666667,0.3,1.8,196,1002.76,-24.1,72,0.36,0.0,1033.97,75.8
2019-01-16 16:20,50.6304466666667,-96.9807683333333,1.1,2.3,188,1002.80,-23.9,72,0.36,0.0,1034.00,75.8
2019-01-16 16:30,50.6304483333333,-96.9807666666667,1.9,4.2,195,1002.78,-23.9,72,0.37,0.0,1033.97,75.8
2019-01-16 16:40,50.6304483333333,-96.9807666666667,3.7,5.4,204,1002.74,-23.9,70,0.37,0.0,1033.93,75.8
2019-01-16 16:50,50.6304483333333,-96.9807666666667,3.9,5.4,213,1002.70,-23.9,70,0.37,0.0,1033.88,75.8
2019-01-16 17:00,50.6304266666667,-96.980745,5.4,6.4,211,1002.51,-23.9,70,0.37,0.0,1033.66,131.6
2019-01-16 17:10,50.6304416666667,-96.9807733333333,5.4,7.0,214,1002.46,-23.9,70,0.37,0.0,1033.58,131.6
2019-01-16 17:20,50.6304433333333,-96.9807683333333,5.8,7.5,209,1002.28,-23.8,70,0.37,0.0,1033.36,131.6
2019-01-16 17:30,50.630445,-96.980765,5.4,6.8,212,1002.09,-23.6,70,0.37,0.0,1033.13,131.6
2019-01-16 17:40,50.6304466666667,-96.980765,4.1,6.5,206,1001.94,-23.3,70,0.37,0.0,1032.93,131.6
2019-01-16 17:50,50.6304183333333,-96.98076,4.1,5.9,204,1001.89,-23.0,69,0.37,0.0,1032.85,131.6
2019-01-16 18:00,50.63044,-96.9807616666667,2.9,5.4,225,1001.89,-22.7,68,0.37,0.0,1032.83,142.0
2019-01-16 18:10,50.6304466666667,-96.9807666666667,2.7,4.2,208,1001.90,-22.6,68,0.37,0.0,1032.82,142.0
2019-01-16 18:20,50.6304466666667,-96.98077,2.7,4.0,229,1001.78,-22.5,68,0.38,0.0,1032.69,142.0
2019-01-16 18:30,50.6304483333333,-96.9807716666667,2.1,3.5,203,1001.69,-22.4,67,0.38,0.0,1032.60,142.0
2019-01-16 18:40,50.6304483333333,-96.9807716666667,2.0,2.8,191,1001.52,-22.2,68,0.37,0.0,1032.41,142.0
2019-01-16 18:50,50.6304483333333,-96.98077,2.6,4.3,207,1001.42,-22.0,67,0.37,0.0,1032.29,142.0
2019-01-16 19:00,50.6304466666667,-96.98077,2.4,4.5,196,1001.29,-21.8,66,0.36,0.0,1032.14,0.0
2019-01-16 19:10,50.6304483333333,-96.98077,1.8,4.2,179,1001.13,-21.6,66,0.36,0.0,1031.96,0.0
2019-01-16 19:20,50.6304466666667,-96.9807716666667,0.5,1.5,145,1001.01,-20.9,64,0.36,0.0,1031.78,0.0
2019-01-16 19:30,50.6304466666667,-96.9807716666667,0.7,2.1,68,1000.97,-19.9,62,0.36,0.0,1031.65,0.0
2019-01-16 19:40,50.6304466666667,-96.9807716666667,1.0,2.2,144,1000.94,-20.5,62,0.36,0.0,1031.64,0.0
2019-01-16 19:50,50.6304466666667,-96.9807716666667,1.4,2.7,203,1000.88,-20.8,63,0.36,0.0,1031.59,0.0
2019-01-16 20:00,50.6304466666667,-96.9807716666667,1.3,2.7,159,1000.82,-20.6,63,0.36,0.0,1031.51,323.4
2019-01-16 20:10,50.6304466666667,-96.9807716666667,1.6,3.4,127,1000.69,-20.4,63,0.36,0.0,1031.35,323.4
2019-01-16 20:20,50.6304466666667,-96.9807716666667,1.9,3.0,120,1000.56,-20.3,64,0.36,0.0,1031.20,323.4
2019-01-16 20:30,50.6304466666667,-96.9807716666667,2.7,4.2,133,1000.42,-20.5,64,0.37,0.0,1031.06,323.4
2019-01-16 20:40,50.6304466666667,-96.9807733333333,2.8,4.3,128,1000.29,-20.6,66,0.37,0.0,1030.93,323.4
2019-01-16 20:50,50.6304466666667,-96.9807733333333,2.3,3.7,123,1000.23,-20.3,66,0.37,0.0,1030.83,323.4
2019-01-16 21:00,50.6304466666667,-96.9807733333333,2.1,3.4,123,1000.22,-20.1,65,0.37,0.0,1030.79,299.2
2019-01-16 21:10,50.6304466666667,-96.9807733333333,2.3,3.6,142,1000.30,-20.6,65,0.37,0.0,1030.86,299.2
2019-01-16 21:20,50.6304466666667,-96.9807733333333,3.0,4.7,144,1000.26,-20.5,65,0.37,0.0,1030.75,299.2
2019-01-16 21:30,50.6304466666667,-96.9807733333333,4.1,5.1,148,1000.27,-20.3,64,0.37,0.0,1030.78,299.2
2019-01-16 21:40,50.6304483333333,-96.9807733333333,3.6,5.3,181,1000.10,-20.0,63,0.37,0.0,1030.62,299.2
2019-01-16 21:50,50.6304483333333,-96.9807716666667,3.6,4.7,168,999.98,-20.3,63,0.38,0.0,1030.51,299.2
2019-01-16 22:00,50.630435,-96.9807416666667,3.6,4.4,176,999.78,-20.4,64,0.38,0.0,1030.29,130.6
2019-01-16 22:10,50.6304433333333,-96.9807483333333,3.7,4.6,181,999.69,-20.4,65,0.39,0.0,1030.19,130.6
2019-01-16 22:20,50.6304466666667,-96.9807533333333,3.8,4.6,171,999.61,-20.5,65,0.39,0.0,1030.12,130.6
2019-01-16 22:30,50.63045,-96.980755,4.5,5.9,175,999.60,-20.5,65,0.39,0.0,1030.11,130.6
2019-01-16 22:40,50.6304516666667,-96.98077,4.7,5.6,187,999.64,-20.4,66,0.40,0.0,1030.14,130.6
2019-01-16 22:50,50.6304516666667,-96.9807633333333,4.4,5.1,190,999.66,-20.5,66,0.40,0.0,1030.15,130.6
2019-01-16 23:00,50.6304566666667,-96.9807633333333,4.0,6.2,191,999.56,-20.6,67,0.41,0.0,1030.08,48.3
2019-01-16 23:10,50.6304566666667,-96.98076,3.6,5.3,178,999.29,-20.6,67,0.41,0.0,1029.80,48.3
2019-01-16 23:20,50.6304566666667,-96.98076,2.3,3.1,195,999.40,-20.6,67,0.41,0.0,1029.90,48.3
2019-01-16 23:30,50.6304566666667,-96.9807616666667,1.9,2.5,209,999.48,-20.6,67,0.41,0.0,1029.96,48.3
2019-01-16 23:40,50.6304583333333,-96.98076,1.1,2.3,212,999.48,-20.6,68,0.41,0.0,1029.98,48.3
2019-01-16 23:50,50.6304483333333,-96.9807633333333,0.1,0.9,173,999.33,-20.3,67,0.41,0.0,1029.82,48.3
